Tracking 18851 objects as of 25-Nov-2017
HD Live streaming from Space Station
objects crossing your sky now

FENGYUN 1C DEB

Track FENGYUN 1C DEB now!
10-day predictions


NORAD ID: 31568
Int'l Code: 1999-025BZK
Perigee: 837.9 km
Apogee: 1,060.3 km
Inclination: 102.1 °
Period: 103.9 minutes
Semi major axis: 7320 km
RCS: 0.0068 m2 (small)
Launch date: May 10, 1999
Source: People's Republic of China (PRC)
Launch site: Taiyaun Space Center, China (TSC)

Note: This is SATELLITE DEBRIS
aabbcc
Your satellite tracking list
Your tracking list is empty




NASA's NSSDC Master Catalog

Two Line Element Set (TLE):
1 31568U 99025BZK 17326.96380125  .00001136  00000-0  95132-3 0  9995
2 31568 102.0889  16.4952 0151898  57.0555 304.5094 13.86208915538317
Source of the keplerian elements: AFSPC